Atlanta Dekalb, GA

6:16 PM EDT on June 26, 2017 (GMT -0400)
Dekalb-Peachtree

Weather History for KPDK - July, 2013

Change the Weather History Date:

Wednesday, July 31, 2013

  Actual Average Record
Temperature  
Mean Temperature 74 °F 80 °F  
Max Temperature 78 °F 89 °F 100 °F (1999)
Min Temperature 69 °F 71 °F 66 °F (2014)
Cooling Degree Days 9 15  
Month to date cooling degree days 377 459  
Year to date cooling degree days 900 1023  
Since 1 June cooling degree days 735 812  
Growing Degree Days 24 (Base 50)    
Moisture  
Dew Point 70 °F    
Average Humidity 81    
Maximum Humidity 93    
Minimum Humidity 69    
Precipitation  
Precipitation 0.58 in 0.13 in 1.68 in (2000)
Month to date precipitation 9.62 5.02  
Year to date precipitation 28.81 32.27  
Sea Level Pressure  
Sea Level Pressure 30.07 in    
Wind  
Wind Speed 3 mph (SSW)    
Max Wind Speed 17 mph    
Max Gust Speed 23 mph    
Visibility 6 miles    
Events Rain , Thunderstorm    
T = Trace of Precipitation, MM = Missing Value Source: NWS Daily Summary

Daily Weather History Graph

Daily Weather History Graph

Search for Another Location

Airport or City:

Trip Planner

Search our weather history database for the weather conditions in past years. The results will help you decide how hot, cold, wet, or windy it might be!

Date:

Astronomy

Jul. 31, 2013 Rise Set
Actual Time 6:48 AM EDT 8:38 PM EDT
Civil Twilight 6:20 AM EDT 9:05 PM EDT
Nautical Twilight 5:47 AM EDT 9:38 PM EDT
Astronomical Twilight 5:12 AM EDT 10:13 PM EDT
Moon 1:42 AM EDT (7/31) 3:52 PM EDT (7/31)
Length of Visible Light 14h 44m
Length of Day
13h 50m
Waning Crescent, 32% of the Moon is Illuminated
Jul 31
Waning Crescent
Aug 6
New
Aug 14
First Quarter
Aug 20
Full
Aug 28
Last Quarter

Hourly Weather History & Observations

Time (EDT) Temp. Dew Point Humidity Pressure Visibility Wind Dir Wind Speed Gust Speed Precip Events Conditions
12:53 AM 75.0 °F 66.0 °F 73% 30.09 in 10.0 mi Calm Calm - N/A   Scattered Clouds
1:53 AM 75.0 °F 64.0 °F 69% 30.08 in 10.0 mi Calm Calm - N/A   Partly Cloudy
3:53 AM 75.0 °F 64.0 °F 69% 30.06 in 10.0 mi Calm Calm - N/A   Partly Cloudy
4:53 AM 73.0 °F 66.0 °F 79% 30.06 in 10.0 mi Calm Calm - N/A   Partly Cloudy
5:34 AM 71.6 °F 69.8 °F 94% 30.17 in 3.0 mi WNW 9.2 mph - 0.06 in Rain Light Rain
5:44 AM 69.8 °F 69.8 °F 100% 30.17 in 2.5 mi WNW 4.6 mph - 0.11 in Rain Rain
5:51 AM 69.8 °F 69.8 °F 100% 30.17 in 4.0 mi West 4.6 mph - 0.12 in Rain Rain
5:53 AM 70.0 °F 68.0 °F 93% 30.12 in 4.0 mi West 4.6 mph - 0.12 in Rain Rain
6:10 AM 69.8 °F 66.2 °F 88% 30.16 in 2.5 mi Calm Calm - 0.08 in Rain Rain
6:19 AM 69.8 °F 68.0 °F 94% 30.15 in 3.0 mi Calm Calm - 0.11 in Rain Rain
6:53 AM 70.0 °F 69.1 °F 97% 30.09 in 5.0 mi Calm Calm - 0.13 in   Mostly Cloudy
7:53 AM 71.1 °F 69.1 °F 93% 30.11 in 6.0 mi NW 4.6 mph - N/A   Overcast
8:53 AM 73.0 °F 69.1 °F 87% 30.11 in 6.0 mi Variable 3.5 mph - 0.00 in Rain Light Rain
9:53 AM 73.0 °F 70.0 °F 90% 30.09 in 8.0 mi Calm Calm - 0.00 in   Overcast
10:50 AM 73.4 °F 69.8 °F 88% 30.14 in 8.0 mi Calm Calm - N/A   Mostly Cloudy
10:53 AM 75.0 °F 71.1 °F 87% 30.10 in 8.0 mi Calm Calm - N/A   Overcast
11:53 AM 73.0 °F 70.0 °F 90% 30.12 in 3.0 mi Calm Calm - 0.02 in Rain Light Rain
12:47 PM 71.6 °F 69.8 °F 94% 30.15 in 1.8 mi Calm Calm - 0.06 in Rain Rain
12:53 PM 72.0 °F 70.0 °F 93% 30.11 in 1.2 mi SSW 3.5 mph - 0.08 in Rain Rain
1:53 PM 72.0 °F 70.0 °F 93% 30.09 in 3.0 mi Calm Calm - 0.08 in Rain Light Rain
2:00 PM 71.6 °F 71.6 °F 100% 30.13 in 3.0 mi Calm Calm - 0.01 in Rain Light Rain
2:03 PM 71.6 °F 71.6 °F 100% 30.13 in 2.0 mi Calm Calm - 0.01 in Rain Light Rain
2:53 PM 73.9 °F 72.0 °F 93% 30.06 in 5.0 mi SSE 3.5 mph - 0.05 in   Overcast
3:42 PM 73.4 °F 71.6 °F 94% 30.08 in 1.8 mi South 5.8 mph - 0.04 in Rain Rain
3:53 PM 73.0 °F 72.0 °F 96% 30.04 in 2.5 mi Calm Calm - 0.06 in Rain Light Rain
4:00 PM 73.4 °F 71.6 °F 94% 30.07 in 3.0 mi SSW 4.6 mph - 0.01 in Rain Light Rain
4:53 PM 73.9 °F 71.1 °F 91% 30.01 in 4.0 mi WSW 4.6 mph - 0.04 in   Mostly Cloudy
5:46 PM 77.0 °F 71.6 °F 83% 30.03 in 9.0 mi WNW 4.6 mph - N/A   Partly Cloudy
5:53 PM 78.1 °F 71.1 °F 79% 29.99 in 9.0 mi West 4.6 mph - N/A   Partly Cloudy
6:53 PM 77.0 °F 70.0 °F 79% 29.97 in 8.0 mi WSW 5.8 mph - N/A   Clear
7:53 PM 75.9 °F 71.1 °F 85% 29.99 in 8.0 mi South 4.6 mph - N/A   Mostly Cloudy
8:19 PM 75.2 °F 71.6 °F 89% 30.04 in 8.0 mi Calm Calm - N/A   Overcast
8:53 PM 75.0 °F 71.1 °F 87% 30.00 in 9.0 mi SSE 3.5 mph - N/A   Overcast
9:02 PM 75.2 °F 71.6 °F 89% 30.04 in 8.0 mi Calm Calm - N/A   Overcast
9:53 PM 73.9 °F 71.1 °F 91% 30.01 in 9.0 mi SSE 3.5 mph - N/A   Overcast
10:28 PM 73.4 °F 71.6 °F 94% 30.04 in 9.0 mi SSE 3.5 mph - N/A Thunderstorm Thunderstorm
10:43 PM 73.4 °F 71.6 °F 94% 30.05 in 9.0 mi South 3.5 mph - N/A   Overcast
10:50 PM 73.4 °F 71.6 °F 94% 30.05 in 9.0 mi SSE 3.5 mph - N/A   Overcast
10:53 PM 73.9 °F 71.1 °F 91% 30.00 in 9.0 mi SSE 3.5 mph - N/A   Overcast
11:18 PM 73.4 °F 71.6 °F 94% 30.04 in 10.0 mi South 5.8 mph - N/A Thunderstorm Overcast
11:36 PM 73.4 °F 71.6 °F 94% 30.04 in 10.0 mi South 9.2 mph - N/A   Overcast
11:53 PM 73.9 °F 71.1 °F 91% 29.99 in 10.0 mi South 6.9 mph - N/A   Overcast